Regional Weather Roundup
Issued by NWS Upton, NY

Current Version | Previous Version | Text Only | Print | Product List | Glossary On
Versions: 1 2 3 4 5 6 7 8 9 10 11 12 13 14 15 16 17 18 19 20 21 22 23 24 25 26 27 28 29 30
000
ASUS41 KOKX 231610
RWROKX

REGIONAL WEATHER ROUNDUP
NATIONAL WEATHER SERVICE NEW YORK NY
1200 PM EDT MON OCT 23 2017

NOTE: "FAIR" INDICATES FEW OR NO CLOUDS BELOW 12,000 FEET WITH NO
SIGNIFICANT WEATHER AND/OR OBSTRUCTIONS TO VISIBILITY.

NYZ071-072-176-178-NJZ106-104-231700-
NEW YORK CITY METRO AREA

CITY           SKY/WX    TMP DP  RH WIND       PRES   REMARKS
Central Park   MOSUNNY   74  60  61 CALM      30.27F
Bronx Bot Gard   N/A     73  59  60 E1        30.26R
LaGuardia APRT PTSUNNY   72  60  66 S15       30.25F
Kennedy INTL   PTSUNNY   72  64  78 SE15      30.27F
Breezy Point     N/A     66 N/A N/A S10         N/A
Newark/Liberty PTSUNNY   74  62  66 S10       30.24F
Teterboro      PTSUNNY   74  61  63 S10       30.23F
$$

NYZ177-179-078>081-231700-
LONG ISLAND NEW YORK

CITY           SKY/WX    TMP DP  RH WIND       PRES   REMARKS
Jones Beach      N/A     66 N/A N/A SE12        N/A
Matinecock PT    N/A     72 N/A N/A S5G12       N/A
Farmingdale    SUNNY     72  63  73 S15       30.27F
MacArthur/ISP  PTSUNNY   72  64  76 S10       30.27F
Shirley        SUNNY     74  64  71 S16       30.28F
Mt Sinai Harb    N/A     70 N/A N/A S9          N/A
Westhampton    MOSUNNY   71  61  70 S12       30.31F
East Hampton   FAIR      68  62  82 SE12      30.30F
Montauk          N/A     69  64  84 S3        30.32F
$$

NYZ052-065-067-231700-
HUDSON VALLEY

CITY           SKY/WX    TMP DP  RH WIND       PRES   REMARKS
White Plains   PTSUNNY   71  62  73 SE13      30.26F
Larchmont Harb   N/A     64 N/A N/A NE9         N/A
Croton On Huds   N/A     66 N/A N/A W3          N/A
Newburgh       CLOUDY    66  63  88 SE12      30.27F
Montgomery     CLOUDY    66  60  81 CALM      30.24F
Poughkeepsie   CLOUDY    67  58  72 S10G17    30.24F
Albany         PTSUNNY   66  56  70 S12G21    30.23F
$$

NJZ001-105-106-008-010-013-015-019>022-104-231700-
NEW JERSEY

CITY           SKY/WX    TMP DP  RH WIND       PRES   REMARKS
Newark/Liberty PTSUNNY   74  62  66 S10       30.24F
Teterboro      PTSUNNY   74  61  63 S10       30.23F
Caldwell       CLOUDY    72  63  73 S10       30.24F
Somerville     CLOUDY    72  64  76 VRB3      30.21F
Linden         FAIR      74  59  59 S12       30.24F
Perth Amboy      N/A     72 N/A N/A S16         N/A
Sussex         CLOUDY    69  60  73 SE8       30.23F
Andover          N/A     69  61  75 VRB5      30.24F
Trenton        PTSUNNY   73  63  70 S10G18    30.22F
Millville      CLOUDY    73  68  84 SE8       30.21F
Atlantic City  CLOUDY    73  65  75 SE13G24   30.23F
Wrightstown    MOSUNNY   73  64  72 SE12      30.20F
Toms River       N/A     73  64  73 SE12      30.24F
Belmar         CLOUDY    71  63  75 SE10G16   30.26F
$$

PAZ047>061-062-071-231700-
EASTERN PENNSYLVANIA

CITY           SKY/WX    TMP DP  RH WIND       PRES   REMARKS
Philadelphia   CLOUDY    73  64  73 SE12      30.21F
Allentown      CLOUDY    69  60  73 VRB5      30.22F
Scranton       CLOUDY    66  59  78 S9G17     30.21F
$$

CTZ002-004>006-009-010-012-RIZ004-006-007-MAZ004-011-015-231700-
SOUTHERN NEW ENGLAND
 IN CT

CITY           SKY/WX    TMP DP  RH WIND       PRES   REMARKS
Bradley INTL   PTSUNNY   66  57  72 VRB7      30.29F
Hartford       PTSUNNY   69  60  73 S6        30.28F
Danbury        PTSUNNY   68  61  78 SE9       30.28F
Wtrbury/Oxford PTSUNNY   66  58  75 SE14      30.30F
Norwalk Harbor   N/A     64 N/A N/A NE9         N/A
Bridgeport     CLOUDY    69  63  81 NE9       30.28F
Meriden        CLOUDY    68  58  70 S6        30.29F
New Haven      PTSUNNY   68  62  81 SE10      30.29F
Chester        CLOUDY    70  61  73 SE7       30.30F
Groton         MOSUNNY   68  62  81 SE10      30.30F
Wilimantic     MOSUNNY   68  59  73 S8        30.31F

 IN RI

CITY           SKY/WX    TMP DP  RH WIND       PRES   REMARKS
Providence     CLOUDY    62  61  96 CALM      30.34F FOG
Block Island   MOSUNNY   67  63  87 S9        30.32F
Westerly       MOSUNNY   69  62  78 SE6       30.32F
 IN MA

CITY           SKY/WX    TMP DP  RH WIND       PRES   REMARKS
Boston         FOG       56  56 100 E7        30.34F VSB<1/4
Worcester      PTSUNNY   58  55  90 SE5       30.32F
Westfield      CLOUDY    59  54  83 CALM      30.30F
Provincetown   SUNNY     69  61  75 S10       30.34F
Nantucket      SUNNY     66  63  90 SE10      30.34F
$$

ANZ330-335-338-340-345-350-353-355-231700-
COASTAL MARINE OBSERVATIONS


STATION/POSITION TIME  SKY/WX   TEMP    WIND        PRES    VSBY  WAVE
                                AIR SEA DIR/SP/G                  HT/PER
                 (UTC)          (F)     (DEG/KT/KT) (MB)    (MI)  (FT/S)
NY HARB ENTRANCE 1550            66 65  150/ 10/ 12 1023.9          2/ 9
20 S FIRE ISLAND 1550            65 64  140/ 10/ 12 1024.9          2/ 8
GREAT SOUTH BAY  1515            65 62  140/ 10/ 12   N/A
15 E BARNEGAT LI NOT AVBL
HUDSON CANYON    1550            66 65  130/ 10/ 12 1024.7          2/ 9
KINGS POINT      1548            69 66  210/ 10/ 14 1025.2
EXECUTION ROCKS  1545            68     130/  6/ 10   N/A
WESTERN LI SOUND 1545            67      60/  8/ 10   N/A           0
CENTRAL LI SOUND 1545            67     140/ 10/ 12   N/A           1
EASTERN LI SOUND NOT AVBL
ROBBINS REEF     1548            67     160/ 16/ 18 1024.9
$$


>>>>>>>>>>>>>>>>>>>>>>>>>>>> KEY <<<<<<<<<<<<<<<<<<<<<<<<<<<
>                                                          <
>     SKY/WX - Sky Condition/Present Weather               <
>     TMP    - Temperature in Fahrenheit                   <
>     DP     - Dew Point in Fahrenheit                     <
>     RH     - Relative Humidity in Percent                <
>     WIND   - Direction (from) and Speed in MPH           <
>     PRES   - Mean Sea Level Pressure (inches of Hg)      <
>     WCI    - Wind Chill Index                            <
>     VSB    - VISIBILITY IN MILES                         <
>     HX     - HEAT INDEX                                  <
>     TC     - TEMPERATURE IN CELSIUS                      <
>     VRB    - VARIABLE WIND DIRECTION                     <
>                                                          <
>>>>>>>>>>>>>>>>>>>>>>>>>>>> KEY <<<<<<<<<<<<<<<<<<<<<<<<<<<




USA.gov is the U.S. government's official web portal to all federal, state and local government web resources and services.